DAL589 KATL-MMMX

Flight info

Callsign DAL589
Flight time 3h 6m
Altitude 36000
Route BANNG3 LUCKK DCT PNMOA DCT MUURY J2 SJI DCT TBD M345 WAHOO M575 CLONN UM575 TAM UT100 ENAGA ENAGA3A
Aircraft B738/M-SDE2E3FGHIRWXY/LB1

Departure

Time 2026-05-07 01:14
Airport Hartsfield Jackson Atlanta International Airport (KATL)

Arrival

Time 2026-05-07 04:21
Airport Mexico City Benito Juárez International Airport (MMMX)
Time Latitude Longitude Altitude Speed Heading
2026-05-07 00:59 33.64297 -84.42521 1005 ft 0 kts 270°
2026-05-07 01:03 33.64297 -84.42513 1006 ft 6 kts 270°
2026-05-07 01:03 33.64297 -84.42490 1005 ft 0 kts 270°
2026-05-07 01:05 33.64297 -84.42477 1005 ft 2 kts 270°
2026-05-07 01:05 33.64297 -84.42457 1005 ft 2 kts 270°
2026-05-07 01:05 33.64298 -84.42438 1005 ft 2 kts 247°
2026-05-07 01:05 33.64309 -84.42425 1005 ft 2 kts 202°
2026-05-07 01:06 33.64323 -84.42416 1005 ft 2 kts 187°
2026-05-07 01:06 33.64331 -84.42415 1005 ft 0 kts 183°
2026-05-07 01:08 33.64308 -84.42417 1005 ft 7 kts 183°
2026-05-07 01:08 33.64236 -84.42415 1005 ft 12 kts 166°
2026-05-07 01:08 33.64196 -84.42340 1005 ft 11 kts 91°
2026-05-07 01:08 33.64196 -84.42315 1005 ft 0 kts 90°
2026-05-07 01:10 33.64196 -84.42308 1005 ft 3 kts 90°
2026-05-07 01:10 33.64180 -84.42259 1006 ft 9 kts 134°
2026-05-07 01:10 33.64098 -84.42241 1006 ft 15 kts 179°
2026-05-07 01:10 33.63974 -84.42244 1006 ft 20 kts 179°
2026-05-07 01:11 33.63824 -84.42234 1005 ft 22 kts 180°
2026-05-07 01:11 33.63679 -84.42218 1006 ft 21 kts 147°
2026-05-07 01:11 33.63654 -84.42071 1006 ft 18 kts 89°
2026-05-07 01:11 33.63654 -84.41903 1005 ft 23 kts 90°
2026-05-07 01:12 33.63655 -84.41691 1005 ft 27 kts 90°
2026-05-07 01:12 33.63654 -84.41466 1005 ft 26 kts 90°
2026-05-07 01:12 33.63655 -84.41254 1005 ft 24 kts 89°
2026-05-07 01:12 33.63655 -84.41057 1005 ft 23 kts 90°
2026-05-07 01:13 33.63621 -84.40916 1005 ft 17 kts 155°
2026-05-07 01:13 33.63503 -84.40907 1006 ft 17 kts 182°
2026-05-07 01:13 33.63471 -84.40977 1006 ft 9 kts 269°
2026-05-07 01:13 33.63470 -84.41093 1005 ft 32 kts 270°
2026-05-07 01:14 33.63471 -84.41668 1004 ft 104 kts 270°
2026-05-07 01:14 33.63471 -84.42769 1006 ft 161 kts 270°
2026-05-07 01:14 33.63475 -84.44228 1480 ft 178 kts 269°
2026-05-07 01:14 33.63484 -84.45682 2472 ft 168 kts 264°
2026-05-07 01:15 33.63477 -84.47128 3110 ft 184 kts 264°
2026-05-07 01:15 33.63464 -84.48770 3342 ft 209 kts 264°
2026-05-07 01:15 33.63456 -84.50593 3734 ft 222 kts 264°
2026-05-07 01:15 33.63454 -84.52461 4266 ft 233 kts 265°
2026-05-07 01:16 33.63452 -84.54498 4682 ft 250 kts 266°
2026-05-07 01:16 33.63454 -84.56587 5549 ft 249 kts 266°
2026-05-07 01:16 33.63455 -84.58661 6419 ft 250 kts 267°
2026-05-07 01:16 33.63455 -84.60767 7140 ft 254 kts 267°
2026-05-07 01:17 33.63451 -84.62879 7975 ft 253 kts 265°
2026-05-07 01:17 33.63034 -84.64888 8701 ft 254 kts 241°
2026-05-07 01:17 33.61847 -84.66454 9443 ft 261 kts 216°
2026-05-07 01:17 33.60102 -84.67183 10170 ft 275 kts 190°
2026-05-07 01:18 33.58161 -84.66868 10854 ft 292 kts 164°
2026-05-07 01:18 33.56390 -84.65568 11487 ft 308 kts 148°
2026-05-07 01:18 33.54721 -84.63885 12110 ft 315 kts 145°
2026-05-07 01:18 33.53069 -84.62140 12830 ft 318 kts 145°
2026-05-07 01:19 33.51410 -84.60372 13509 ft 321 kts 145°
2026-05-07 01:19 33.49735 -84.58581 13948 ft 323 kts 144°
2026-05-07 01:19 33.48044 -84.56769 13978 ft 327 kts 144°
2026-05-07 01:19 33.46374 -84.54974 13995 ft 327 kts 144°
2026-05-07 01:20 33.44689 -84.53158 13990 ft 326 kts 144°
2026-05-07 01:20 33.42945 -84.51290 14025 ft 348 kts 144°
2026-05-07 01:20 33.41068 -84.49305 14025 ft 371 kts 144°
2026-05-07 01:20 33.39068 -84.47214 14012 ft 392 kts 144°
2026-05-07 01:21 33.36954 -84.45024 14014 ft 411 kts 144°
2026-05-07 01:21 33.34729 -84.42774 14047 ft 423 kts 148°
2026-05-07 01:21 33.32181 -84.41093 14031 ft 413 kts 166°
2026-05-07 01:21 33.29393 -84.40460 14380 ft 406 kts 182°
2026-05-07 01:22 33.26587 -84.40523 14810 ft 403 kts 189°
2026-05-07 01:22 33.23771 -84.40731 15174 ft 408 kts 188°
2026-05-07 01:22 33.20922 -84.40909 15542 ft 412 kts 188°
2026-05-07 01:22 33.18049 -84.41067 15920 ft 415 kts 188°
2026-05-07 01:23 33.15148 -84.41214 16285 ft 419 kts 188°
2026-05-07 01:23 33.12260 -84.41355 16649 ft 422 kts 188°
2026-05-07 01:23 33.09316 -84.41497 17016 ft 425 kts 188°
2026-05-07 01:23 33.06347 -84.41641 17377 ft 428 kts 188°
2026-05-07 01:24 33.03356 -84.41786 17743 ft 431 kts 188°
2026-05-07 01:24 33.00338 -84.41934 18090 ft 434 kts 188°
2026-05-07 01:24 32.97307 -84.42082 18439 ft 436 kts 188°
2026-05-07 01:24 32.94275 -84.42188 18794 ft 438 kts 186°
2026-05-07 01:25 32.91195 -84.42165 19046 ft 443 kts 185°
2026-05-07 01:25 32.88138 -84.42081 19345 ft 445 kts 184°
2026-05-07 01:25 32.85034 -84.41979 19652 ft 447 kts 184°
2026-05-07 01:25 32.81913 -84.41883 19957 ft 448 kts 185°
2026-05-07 01:26 32.78786 -84.41798 20230 ft 450 kts 185°
2026-05-07 01:26 32.75636 -84.41724 20500 ft 452 kts 185°
2026-05-07 01:26 32.72485 -84.41657 20782 ft 454 kts 185°
2026-05-07 01:26 32.69359 -84.41594 21009 ft 456 kts 185°
2026-05-07 01:27 32.66175 -84.41531 21263 ft 458 kts 185°
2026-05-07 01:27 32.62983 -84.41467 21507 ft 460 kts 185°
2026-05-07 01:27 32.59769 -84.41403 21769 ft 462 kts 185°
2026-05-07 01:27 32.56551 -84.41338 22037 ft 464 kts 185°
2026-05-07 01:28 32.53311 -84.41272 22273 ft 465 kts 185°
2026-05-07 01:28 32.50064 -84.41206 22461 ft 468 kts 185°
2026-05-07 01:28 32.46793 -84.41140 22649 ft 471 kts 185°
2026-05-07 01:28 32.43509 -84.41074 22877 ft 472 kts 185°
2026-05-07 01:29 32.40216 -84.41007 23109 ft 474 kts 185°
2026-05-07 01:29 32.36914 -84.40968 23309 ft 473 kts 189°
2026-05-07 01:29 32.33744 -84.41694 23478 ft 459 kts 207°
2026-05-07 01:29 32.30981 -84.43461 23677 ft 448 kts 222°
2026-05-07 01:30 32.28719 -84.45878 23870 ft 441 kts 233°
2026-05-07 01:30 32.26975 -84.48814 24042 ft 434 kts 246°
2026-05-07 01:30 32.25721 -84.52056 24223 ft 433 kts 249°
2026-05-07 01:30 32.24543 -84.55335 24412 ft 434 kts 250°
2026-05-07 01:31 32.23380 -84.58624 24579 ft 435 kts 250°
2026-05-07 01:31 32.22206 -84.61929 24746 ft 436 kts 250°
2026-05-07 01:31 32.21022 -84.65228 24910 ft 437 kts 250°
2026-05-07 01:31 32.19828 -84.68520 25077 ft 437 kts 250°
2026-05-07 01:32 32.18620 -84.71825 25229 ft 438 kts 249°
2026-05-07 01:32 32.17406 -84.75127 25381 ft 439 kts 249°
2026-05-07 01:32 32.16185 -84.78437 25532 ft 440 kts 249°
2026-05-07 01:32 32.14962 -84.81747 25699 ft 440 kts 249°
2026-05-07 01:33 32.13740 -84.85048 25930 ft 438 kts 249°
2026-05-07 01:33 32.12522 -84.88337 26172 ft 437 kts 249°
2026-05-07 01:33 32.11306 -84.91616 26413 ft 436 kts 249°
2026-05-07 01:33 32.10089 -84.94896 26667 ft 435 kts 250°
2026-05-07 01:34 32.08876 -84.98165 26900 ft 434 kts 250°
2026-05-07 01:34 32.07678 -85.01389 27136 ft 434 kts 250°
2026-05-07 01:34 32.06454 -85.04683 27393 ft 433 kts 250°
2026-05-07 01:34 32.05244 -85.07932 27651 ft 432 kts 250°
2026-05-07 01:35 32.04039 -85.11168 27894 ft 431 kts 250°
2026-05-07 01:35 32.02848 -85.14361 28135 ft 430 kts 250°
2026-05-07 01:35 32.01644 -85.17589 28394 ft 430 kts 250°
2026-05-07 01:35 32.00442 -85.20807 28657 ft 429 kts 250°
2026-05-07 01:36 31.99238 -85.24026 28929 ft 428 kts 250°
2026-05-07 01:36 31.98036 -85.27238 29191 ft 427 kts 250°
2026-05-07 01:36 31.96836 -85.30442 29454 ft 427 kts 250°
2026-05-07 01:36 31.95635 -85.33644 29732 ft 426 kts 250°
2026-05-07 01:37 31.94453 -85.36794 29992 ft 425 kts 250°
2026-05-07 01:37 31.93256 -85.39978 30236 ft 425 kts 249°
2026-05-07 01:37 31.92038 -85.43138 30486 ft 424 kts 249°
2026-05-07 01:37 31.90802 -85.46285 30707 ft 423 kts 249°
2026-05-07 01:38 31.89562 -85.49426 30927 ft 423 kts 249°
2026-05-07 01:38 31.88322 -85.52562 31176 ft 422 kts 249°
2026-05-07 01:38 31.87085 -85.55694 31432 ft 421 kts 249°
2026-05-07 01:38 31.85855 -85.58810 31659 ft 420 kts 249°
2026-05-07 01:39 31.84622 -85.61938 31876 ft 420 kts 249°
2026-05-07 01:39 31.83396 -85.65052 32114 ft 419 kts 249°
2026-05-07 01:39 31.82169 -85.68164 32364 ft 418 kts 249°
2026-05-07 01:39 31.80942 -85.71274 32596 ft 418 kts 249°
2026-05-07 01:40 31.79721 -85.74370 32813 ft 418 kts 249°
2026-05-07 01:40 31.78497 -85.77468 33051 ft 417 kts 248°
2026-05-07 01:40 31.77273 -85.80564 33296 ft 416 kts 248°
2026-05-07 01:40 31.76051 -85.83652 33551 ft 416 kts 248°
2026-05-07 01:41 31.74832 -85.86728 33776 ft 415 kts 248°
2026-05-07 01:41 31.73629 -85.89762 33998 ft 415 kts 248°
2026-05-07 01:41 31.72410 -85.92837 34186 ft 414 kts 248°
2026-05-07 01:41 31.71197 -85.95890 34418 ft 413 kts 248°
2026-05-07 01:42 31.69980 -85.98952 34668 ft 411 kts 248°
2026-05-07 01:42 31.68770 -86.01991 34893 ft 410 kts 248°
2026-05-07 01:42 31.67563 -86.05025 35090 ft 409 kts 248°
2026-05-07 01:42 31.66369 -86.08019 35252 ft 409 kts 248°
2026-05-07 01:43 31.65165 -86.11040 35421 ft 408 kts 248°
2026-05-07 01:43 31.63961 -86.14056 35625 ft 407 kts 248°
2026-05-07 01:43 31.62758 -86.17067 35841 ft 406 kts 248°
2026-05-07 01:43 31.61560 -86.20063 35966 ft 406 kts 249°
2026-05-07 01:44 31.60359 -86.23066 35963 ft 407 kts 249°
2026-05-07 01:44 31.57954 -86.29068 35963 ft 405 kts 248°
2026-05-07 01:45 31.55557 -86.35040 35970 ft 403 kts 248°
2026-05-07 01:45 31.53180 -86.40952 35967 ft 402 kts 248°
2026-05-07 01:46 31.50797 -86.46870 35960 ft 401 kts 248°
2026-05-07 01:46 31.48409 -86.52790 35956 ft 401 kts 248°
2026-05-07 01:47 31.46020 -86.58703 35959 ft 401 kts 248°
2026-05-07 01:47 31.43642 -86.64580 35951 ft 401 kts 248°
2026-05-07 01:48 31.41243 -86.70500 35954 ft 402 kts 248°
2026-05-07 01:48 31.38844 -86.76408 35955 ft 402 kts 248°
2026-05-07 01:49 31.36841 -86.81333 35953 ft 403 kts 248°
2026-05-07 01:49 31.34432 -86.87250 35957 ft 403 kts 248°
2026-05-07 01:50 31.32012 -86.93182 35963 ft 404 kts 248°
2026-05-07 01:50 31.29588 -86.99114 35963 ft 404 kts 248°
2026-05-07 01:51 31.27157 -87.05054 35956 ft 405 kts 248°
2026-05-07 01:51 31.24739 -87.10953 35960 ft 405 kts 248°
2026-05-07 01:52 31.22299 -87.16896 35956 ft 405 kts 248°
2026-05-07 01:52 31.19856 -87.22836 35958 ft 406 kts 248°
2026-05-07 01:53 31.17401 -87.28796 35954 ft 406 kts 247°
2026-05-07 01:53 31.14947 -87.34745 35963 ft 407 kts 247°
2026-05-07 01:54 31.12483 -87.40707 35958 ft 407 kts 247°
2026-05-07 01:54 31.10031 -87.46629 35961 ft 408 kts 247°
2026-05-07 01:55 31.07558 -87.52595 35966 ft 408 kts 247°
2026-05-07 01:55 31.05073 -87.58578 35966 ft 409 kts 247°
2026-05-07 01:56 31.02591 -87.64545 35969 ft 410 kts 247°
2026-05-07 01:56 31.00112 -87.70494 35971 ft 410 kts 247°
2026-05-07 01:57 30.97613 -87.76483 35969 ft 411 kts 247°
2026-05-07 01:57 30.95110 -87.82470 35971 ft 411 kts 247°
2026-05-07 01:58 30.92598 -87.88470 35976 ft 412 kts 247°
2026-05-07 01:58 30.90083 -87.94468 35973 ft 412 kts 247°
2026-05-07 01:59 30.87576 -88.00435 35979 ft 412 kts 247°
2026-05-07 01:59 30.85048 -88.06444 35964 ft 413 kts 247°
2026-05-07 02:00 30.82514 -88.12458 35970 ft 413 kts 247°
2026-05-07 02:00 30.79993 -88.18432 35960 ft 413 kts 247°
2026-05-07 02:01 30.77453 -88.24440 35961 ft 413 kts 247°
2026-05-07 02:01 30.74916 -88.30435 35964 ft 413 kts 247°
2026-05-07 02:02 30.72371 -88.36438 35959 ft 413 kts 248°
2026-05-07 02:02 30.69859 -88.42441 35966 ft 412 kts 248°
2026-05-07 02:03 30.66994 -88.48230 35981 ft 416 kts 241°
2026-05-07 02:03 30.63758 -88.53757 35977 ft 416 kts 240°
2026-05-07 02:04 30.60507 -88.59310 35979 ft 415 kts 241°
2026-05-07 02:04 30.57280 -88.64859 35979 ft 414 kts 241°
2026-05-07 02:05 30.54061 -88.70412 35974 ft 414 kts 241°
2026-05-07 02:05 30.50855 -88.75943 35957 ft 414 kts 241°
2026-05-07 02:06 30.47639 -88.81483 35952 ft 413 kts 241°
2026-05-07 02:06 30.44447 -88.86974 35954 ft 413 kts 241°
2026-05-07 02:07 30.41224 -88.92510 35954 ft 413 kts 241°
2026-05-07 02:07 30.36398 -89.00785 35963 ft 413 kts 240°
2026-05-07 02:08 30.33197 -89.06264 35961 ft 412 kts 240°
2026-05-07 02:08 30.29980 -89.11764 35963 ft 412 kts 240°
2026-05-07 02:09 30.26762 -89.17257 35964 ft 412 kts 240°
2026-05-07 02:09 30.23541 -89.22748 35964 ft 412 kts 240°
2026-05-07 02:10 30.20338 -89.28202 35958 ft 412 kts 240°
2026-05-07 02:10 30.17099 -89.33709 35960 ft 413 kts 240°
2026-05-07 02:11 30.13862 -89.39205 35958 ft 413 kts 240°
2026-05-07 02:11 30.10646 -89.44657 35961 ft 413 kts 240°
2026-05-07 02:12 30.07402 -89.50149 35962 ft 414 kts 240°
2026-05-07 02:12 30.04151 -89.55646 35959 ft 414 kts 240°
2026-05-07 02:13 30.00897 -89.61140 35960 ft 414 kts 240°
2026-05-07 02:13 29.97641 -89.66631 35957 ft 414 kts 240°
2026-05-07 02:14 29.94385 -89.72115 35956 ft 414 kts 239°
2026-05-07 02:14 29.91145 -89.77563 35960 ft 414 kts 239°
2026-05-07 02:15 29.87879 -89.83049 35959 ft 415 kts 239°
2026-05-07 02:15 29.84611 -89.88530 35961 ft 415 kts 239°
2026-05-07 02:16 29.81342 -89.94005 35962 ft 415 kts 239°
2026-05-07 02:16 29.78087 -89.99449 35962 ft 415 kts 239°
2026-05-07 02:17 29.74811 -90.04921 35962 ft 415 kts 239°
2026-05-07 02:17 29.71528 -90.10398 35963 ft 415 kts 239°
2026-05-07 02:18 29.68243 -90.15872 35961 ft 415 kts 239°
2026-05-07 02:18 29.64976 -90.21306 35968 ft 415 kts 239°
2026-05-07 02:19 29.61682 -90.26779 35968 ft 415 kts 239°
2026-05-07 02:19 29.58388 -90.32245 35970 ft 415 kts 239°
2026-05-07 02:20 29.55109 -90.37679 35970 ft 416 kts 238°
2026-05-07 02:20 29.51807 -90.43143 35971 ft 416 kts 238°
2026-05-07 02:21 29.48505 -90.48601 35968 ft 416 kts 238°
2026-05-07 02:21 29.45199 -90.54057 35969 ft 416 kts 238°
2026-05-07 02:22 29.41892 -90.59510 35967 ft 416 kts 238°
2026-05-07 02:22 29.38607 -90.64917 35967 ft 416 kts 238°
2026-05-07 02:23 29.35294 -90.70363 35966 ft 416 kts 238°
2026-05-07 02:23 29.31977 -90.75809 35963 ft 416 kts 238°
2026-05-07 02:24 29.28660 -90.81249 35968 ft 416 kts 238°
2026-05-07 02:24 29.25337 -90.86691 35975 ft 416 kts 238°
2026-05-07 02:25 29.22012 -90.92128 35967 ft 416 kts 238°
2026-05-07 02:25 29.18706 -90.97527 35959 ft 417 kts 238°
2026-05-07 02:26 29.15379 -91.02955 35972 ft 416 kts 238°
2026-05-07 02:26 29.12047 -91.08383 35966 ft 416 kts 238°
2026-05-07 02:27 29.08710 -91.13811 35972 ft 416 kts 238°
2026-05-07 02:27 29.05396 -91.19195 35967 ft 416 kts 237°
2026-05-07 02:28 29.02061 -91.24608 35968 ft 416 kts 237°
2026-05-07 02:28 28.98719 -91.30023 35963 ft 416 kts 237°
2026-05-07 02:29 28.95380 -91.35428 35968 ft 416 kts 237°
2026-05-07 02:29 28.92046 -91.40817 35958 ft 416 kts 237°
2026-05-07 02:30 28.88705 -91.46211 35959 ft 416 kts 237°
2026-05-07 02:30 28.85357 -91.51609 35962 ft 416 kts 237°
2026-05-07 02:31 28.82011 -91.56997 35959 ft 416 kts 237°
2026-05-07 02:31 28.78679 -91.62354 35964 ft 416 kts 237°
2026-05-07 02:32 28.75327 -91.67739 35960 ft 416 kts 237°
2026-05-07 02:32 28.71971 -91.73121 35962 ft 416 kts 237°
2026-05-07 02:33 28.68614 -91.78499 35961 ft 416 kts 237°
2026-05-07 02:33 28.65256 -91.83871 35958 ft 416 kts 237°
2026-05-07 02:34 28.61905 -91.89226 35956 ft 416 kts 237°
2026-05-07 02:34 28.58539 -91.94598 35961 ft 416 kts 237°
2026-05-07 02:35 28.55172 -91.99964 35962 ft 416 kts 237°
2026-05-07 02:35 28.51805 -92.05324 35962 ft 416 kts 237°
2026-05-07 02:36 28.49002 -92.09782 35963 ft 416 kts 237°
2026-05-07 02:36 28.45082 -92.16007 35949 ft 416 kts 237°
2026-05-07 02:37 28.42253 -92.20494 35961 ft 416 kts 237°
2026-05-07 02:37 28.38902 -92.25802 35949 ft 416 kts 237°
2026-05-07 02:38 28.35524 -92.31147 35958 ft 416 kts 237°
2026-05-07 02:38 28.32149 -92.36480 35948 ft 416 kts 237°
2026-05-07 02:39 28.28771 -92.41813 35951 ft 416 kts 236°
2026-05-07 02:39 28.25389 -92.47144 35951 ft 416 kts 236°
2026-05-07 02:40 28.22028 -92.52436 35954 ft 416 kts 236°
2026-05-07 02:40 28.18642 -92.57761 35949 ft 416 kts 236°
2026-05-07 02:41 28.15255 -92.63083 35947 ft 416 kts 236°
2026-05-07 02:41 28.11867 -92.68398 35946 ft 416 kts 236°
2026-05-07 02:42 28.08152 -92.73436 35951 ft 418 kts 229°
2026-05-07 02:42 28.04112 -92.78123 35949 ft 418 kts 229°
2026-05-07 02:43 28.00048 -92.82848 35948 ft 418 kts 229°
2026-05-07 02:43 27.95999 -92.87580 35947 ft 418 kts 229°
2026-05-07 02:44 27.91948 -92.92318 35944 ft 418 kts 229°
2026-05-07 02:44 27.87925 -92.97021 35943 ft 418 kts 229°
2026-05-07 02:45 27.83872 -93.01753 35946 ft 418 kts 229°
2026-05-07 02:45 27.79818 -93.06479 35940 ft 418 kts 229°
2026-05-07 02:46 27.75787 -93.11174 35947 ft 418 kts 229°
2026-05-07 02:46 27.71731 -93.15894 35944 ft 418 kts 229°
2026-05-07 02:47 27.67669 -93.20613 35942 ft 418 kts 229°
2026-05-07 02:47 27.63607 -93.25325 35945 ft 418 kts 229°
2026-05-07 02:48 27.59575 -93.29999 35943 ft 418 kts 229°
2026-05-07 02:48 27.55505 -93.34712 35942 ft 419 kts 229°
2026-05-07 02:49 27.51437 -93.39419 35939 ft 419 kts 229°
2026-05-07 02:49 27.47368 -93.44122 35939 ft 419 kts 229°
2026-05-07 02:50 27.43296 -93.48823 35941 ft 419 kts 229°
2026-05-07 02:50 27.39244 -93.53495 35938 ft 419 kts 228°
2026-05-07 02:51 27.35167 -93.58191 35941 ft 419 kts 228°
2026-05-07 02:51 27.31086 -93.62887 35936 ft 420 kts 228°
2026-05-07 02:52 27.27002 -93.67581 35935 ft 420 kts 228°
2026-05-07 02:52 27.22907 -93.72282 35934 ft 420 kts 228°
2026-05-07 02:53 27.18816 -93.76974 35932 ft 420 kts 228°
2026-05-07 02:53 27.14719 -93.81668 35933 ft 420 kts 228°
2026-05-07 02:54 27.10647 -93.86328 35933 ft 421 kts 228°
2026-05-07 02:54 27.06545 -93.91017 35934 ft 421 kts 228°
2026-05-07 02:55 27.02437 -93.95705 35932 ft 421 kts 228°
2026-05-07 02:55 26.98330 -94.00390 35930 ft 421 kts 228°
2026-05-07 02:56 26.94225 -94.05069 35931 ft 421 kts 228°
2026-05-07 02:56 26.90114 -94.09749 35930 ft 421 kts 228°
2026-05-07 02:57 26.86025 -94.14401 35929 ft 421 kts 228°
2026-05-07 02:57 26.81907 -94.19079 35927 ft 421 kts 228°
2026-05-07 02:58 26.77780 -94.23762 35930 ft 422 kts 228°
2026-05-07 02:58 26.73657 -94.28437 35922 ft 422 kts 228°
2026-05-07 02:59 26.69557 -94.33079 35928 ft 422 kts 228°
2026-05-07 02:59 26.65421 -94.37758 35928 ft 422 kts 227°
2026-05-07 03:00 26.61289 -94.42426 35919 ft 422 kts 227°
2026-05-07 03:00 26.57149 -94.47100 35926 ft 423 kts 227°
2026-05-07 03:01 26.53006 -94.51770 35918 ft 423 kts 227°
2026-05-07 03:01 26.48887 -94.56410 35917 ft 423 kts 227°
2026-05-07 03:02 26.44739 -94.61075 35924 ft 423 kts 227°
2026-05-07 03:02 26.40592 -94.65736 35917 ft 423 kts 227°
2026-05-07 03:03 26.36443 -94.70394 35915 ft 423 kts 227°
2026-05-07 03:03 26.32286 -94.75055 35922 ft 423 kts 227°
2026-05-07 03:04 26.28150 -94.79688 35919 ft 424 kts 227°
2026-05-07 03:04 26.23980 -94.84355 35906 ft 424 kts 227°
2026-05-07 03:05 26.19811 -94.89015 35913 ft 424 kts 227°
2026-05-07 03:05 26.15637 -94.93675 35914 ft 424 kts 227°
2026-05-07 03:06 26.11491 -94.98299 35913 ft 425 kts 227°
2026-05-07 03:06 26.07310 -95.02957 35911 ft 425 kts 227°
2026-05-07 03:07 26.03123 -95.07617 35910 ft 425 kts 227°
2026-05-07 03:07 25.98962 -95.12244 35908 ft 425 kts 227°
2026-05-07 03:08 25.94774 -95.16895 35905 ft 425 kts 227°
2026-05-07 03:08 25.90577 -95.21551 35903 ft 426 kts 227°
2026-05-07 03:09 25.86405 -95.26176 35904 ft 426 kts 227°
2026-05-07 03:09 25.82202 -95.30829 35903 ft 426 kts 227°
2026-05-07 03:10 25.77997 -95.35479 35904 ft 426 kts 227°
2026-05-07 03:10 25.73790 -95.40128 35903 ft 427 kts 227°
2026-05-07 03:11 25.69583 -95.44772 35901 ft 427 kts 227°
2026-05-07 03:11 25.65395 -95.49389 35900 ft 427 kts 226°
2026-05-07 03:12 25.60822 -95.53599 35898 ft 430 kts 216°
2026-05-07 03:12 25.55782 -95.57192 35895 ft 431 kts 216°
2026-05-07 03:13 25.50739 -95.60793 35895 ft 431 kts 216°
2026-05-07 03:13 25.45708 -95.64413 35897 ft 431 kts 216°
2026-05-07 03:14 25.40676 -95.68043 35893 ft 432 kts 216°
2026-05-07 03:15 25.33126 -95.73486 35893 ft 432 kts 216°
2026-05-07 03:15 25.28075 -95.77122 35892 ft 432 kts 216°
2026-05-07 03:16 25.23032 -95.80748 35890 ft 432 kts 216°
2026-05-07 03:16 25.18019 -95.84349 35890 ft 433 kts 216°
2026-05-07 03:17 25.12970 -95.87973 35892 ft 433 kts 216°
2026-05-07 03:17 25.07918 -95.91595 35888 ft 433 kts 216°
2026-05-07 03:18 25.02859 -95.95218 35884 ft 433 kts 216°
2026-05-07 03:18 24.97803 -95.98837 35884 ft 433 kts 216°
2026-05-07 03:19 24.92737 -96.02457 35883 ft 434 kts 216°
2026-05-07 03:19 24.87668 -96.06072 35882 ft 434 kts 215°
2026-05-07 03:20 24.82630 -96.09663 35879 ft 434 kts 215°
2026-05-07 03:20 24.77550 -96.13283 35876 ft 434 kts 215°
2026-05-07 03:21 24.72471 -96.16897 35876 ft 434 kts 215°
2026-05-07 03:21 24.67422 -96.20488 35878 ft 435 kts 215°
2026-05-07 03:22 24.62342 -96.24097 35877 ft 435 kts 215°
2026-05-07 03:22 24.57262 -96.27704 35875 ft 435 kts 215°
2026-05-07 03:23 24.53030 -96.30708 35873 ft 435 kts 215°
2026-05-07 03:23 24.47933 -96.34323 35869 ft 435 kts 215°
2026-05-07 03:24 24.42876 -96.37907 35866 ft 435 kts 215°
2026-05-07 03:24 24.37777 -96.41516 35869 ft 435 kts 215°
2026-05-07 03:25 24.32680 -96.45121 35866 ft 436 kts 215°
2026-05-07 03:25 24.27570 -96.48732 35866 ft 436 kts 215°
2026-05-07 03:26 24.22496 -96.52314 35861 ft 436 kts 215°
2026-05-07 03:26 24.17394 -96.55912 35862 ft 436 kts 215°
2026-05-07 03:27 24.12280 -96.59515 35862 ft 436 kts 215°
2026-05-07 03:27 24.07166 -96.63115 35861 ft 437 kts 215°
2026-05-07 03:28 24.02054 -96.66708 35860 ft 437 kts 215°
2026-05-07 03:28 23.96928 -96.70305 35857 ft 437 kts 215°
2026-05-07 03:29 23.91804 -96.73899 35856 ft 437 kts 215°
2026-05-07 03:29 23.86710 -96.77469 35855 ft 437 kts 215°
2026-05-07 03:30 23.81585 -96.81058 35855 ft 437 kts 215°
2026-05-07 03:30 23.76450 -96.84650 35853 ft 438 kts 215°
2026-05-07 03:31 23.71318 -96.88238 35850 ft 438 kts 215°
2026-05-07 03:31 23.66179 -96.91822 35851 ft 438 kts 215°
2026-05-07 03:32 23.61045 -96.95398 35852 ft 438 kts 215°
2026-05-07 03:32 23.55941 -96.98950 35852 ft 438 kts 215°
2026-05-07 03:33 23.50806 -97.02521 35851 ft 438 kts 215°
2026-05-07 03:33 23.45655 -97.06100 35853 ft 438 kts 215°
2026-05-07 03:34 23.40506 -97.09675 35847 ft 438 kts 215°
2026-05-07 03:34 23.35364 -97.13242 35845 ft 438 kts 215°
2026-05-07 03:35 23.30217 -97.16809 35847 ft 438 kts 215°
2026-05-07 03:35 23.25102 -97.20355 35846 ft 438 kts 215°
2026-05-07 03:36 23.19954 -97.23927 35846 ft 439 kts 215°
2026-05-07 03:36 23.14804 -97.27495 35846 ft 439 kts 215°
2026-05-07 03:37 23.09645 -97.31058 35841 ft 439 kts 214°
2026-05-07 03:37 23.04484 -97.34615 35843 ft 439 kts 214°
2026-05-07 03:38 22.99322 -97.38172 35845 ft 439 kts 214°
2026-05-07 03:38 22.94197 -97.41702 35840 ft 439 kts 214°
2026-05-07 03:39 22.89038 -97.45251 35840 ft 439 kts 214°
2026-05-07 03:39 22.83883 -97.48795 35839 ft 439 kts 214°
2026-05-07 03:40 22.78722 -97.52340 35840 ft 439 kts 214°
2026-05-07 03:40 22.73563 -97.55880 35838 ft 439 kts 214°
2026-05-07 03:41 22.68402 -97.59420 35837 ft 438 kts 214°
2026-05-07 03:41 22.63248 -97.62949 35834 ft 438 kts 214°
2026-05-07 03:42 22.58116 -97.66455 35834 ft 438 kts 214°
2026-05-07 03:42 22.53245 -97.69780 35824 ft 438 kts 214°
2026-05-07 03:43 22.48082 -97.73303 35816 ft 439 kts 214°
2026-05-07 03:43 22.42913 -97.76827 35811 ft 439 kts 214°
2026-05-07 03:44 22.37779 -97.80326 35805 ft 439 kts 214°
2026-05-07 03:44 22.32598 -97.83823 35802 ft 440 kts 211°
2026-05-07 03:45 22.26906 -97.86160 35811 ft 445 kts 197°
2026-05-07 03:45 22.20761 -97.87262 35816 ft 448 kts 191°
2026-05-07 03:46 22.14570 -97.88115 35804 ft 449 kts 190°
2026-05-07 03:46 22.08408 -97.88967 35812 ft 449 kts 191°
2026-05-07 03:47 22.02207 -97.89850 35811 ft 449 kts 191°
2026-05-07 03:47 21.96007 -97.90745 35812 ft 449 kts 191°
2026-05-07 03:48 21.89812 -97.91641 35810 ft 449 kts 191°
2026-05-07 03:48 21.83635 -97.92534 35807 ft 450 kts 191°
2026-05-07 03:49 21.77426 -97.93429 35809 ft 450 kts 190°
2026-05-07 03:49 21.71220 -97.94323 35803 ft 450 kts 190°
2026-05-07 03:50 21.65012 -97.95217 35807 ft 450 kts 190°
2026-05-07 03:50 21.58798 -97.96111 35803 ft 450 kts 190°
2026-05-07 03:51 21.52633 -97.96997 35804 ft 450 kts 190°
2026-05-07 03:51 21.46427 -97.97888 35806 ft 450 kts 190°
2026-05-07 03:52 21.40219 -97.98778 35798 ft 450 kts 190°
2026-05-07 03:52 21.34011 -97.99668 35796 ft 450 kts 190°
2026-05-07 03:53 21.27843 -98.00551 35805 ft 450 kts 189°
2026-05-07 03:53 21.21640 -98.01439 35805 ft 450 kts 189°
2026-05-07 03:54 21.15434 -98.02326 35809 ft 450 kts 189°
2026-05-07 03:54 21.09215 -98.03214 35811 ft 450 kts 189°
2026-05-07 03:55 21.03004 -98.04101 35808 ft 450 kts 189°
2026-05-07 03:55 20.96831 -98.04981 35814 ft 451 kts 189°
2026-05-07 03:56 20.90604 -98.05868 35819 ft 451 kts 189°
2026-05-07 03:56 20.84373 -98.06755 35829 ft 451 kts 189°
2026-05-07 03:57 20.78138 -98.07642 35838 ft 451 kts 189°
2026-05-07 03:57 20.71940 -98.08523 35843 ft 452 kts 189°
2026-05-07 03:58 20.65698 -98.09409 35857 ft 453 kts 189°
2026-05-07 03:58 20.59442 -98.10297 35871 ft 453 kts 189°
2026-05-07 03:59 20.53187 -98.11183 35877 ft 454 kts 189°
2026-05-07 03:59 20.46921 -98.12071 35895 ft 453 kts 189°
2026-05-07 04:00 20.40701 -98.12951 35911 ft 454 kts 189°
2026-05-07 04:00 20.34423 -98.13839 35943 ft 455 kts 189°
2026-05-07 04:01 20.28190 -98.14719 35765 ft 447 kts 189°
2026-05-07 04:01 20.25110 -98.15154 35239 ft 444 kts 189°
2026-05-07 04:01 20.22053 -98.15586 34602 ft 445 kts 189°
2026-05-07 04:01 20.18976 -98.16021 33977 ft 446 kts 189°
2026-05-07 04:02 20.15892 -98.16457 33187 ft 449 kts 189°
2026-05-07 04:02 20.12779 -98.16895 32420 ft 451 kts 189°
2026-05-07 04:02 20.09647 -98.17348 31524 ft 456 kts 192°
2026-05-07 04:02 20.06628 -98.18391 30560 ft 459 kts 210°
2026-05-07 04:03 20.04103 -98.20306 30406 ft 449 kts 223°
2026-05-07 04:03 20.02021 -98.22836 29976 ft 461 kts 236°
2026-05-07 04:03 20.00538 -98.25885 29709 ft 468 kts 250°
2026-05-07 04:03 19.99733 -98.29239 29540 ft 468 kts 256°
2026-05-07 04:04 19.99076 -98.32629 29314 ft 466 kts 257°
2026-05-07 04:04 19.98453 -98.35997 29133 ft 463 kts 257°
2026-05-07 04:04 19.97826 -98.39349 28949 ft 461 kts 257°
2026-05-07 04:04 19.97190 -98.42642 28778 ft 459 kts 257°
2026-05-07 04:05 19.96522 -98.46007 28601 ft 458 kts 256°
2026-05-07 04:05 19.95862 -98.49274 28423 ft 458 kts 256°
2026-05-07 04:05 19.95189 -98.52576 28252 ft 457 kts 256°
2026-05-07 04:05 19.94514 -98.55881 28076 ft 457 kts 256°
2026-05-07 04:06 19.93839 -98.59184 27894 ft 457 kts 256°
2026-05-07 04:06 19.93166 -98.62480 27716 ft 456 kts 256°
2026-05-07 04:06 19.92491 -98.65785 27536 ft 456 kts 256°
2026-05-07 04:06 19.91819 -98.69076 27368 ft 456 kts 256°
2026-05-07 04:07 19.91148 -98.72361 27218 ft 455 kts 256°
2026-05-07 04:07 19.90530 -98.75671 26873 ft 462 kts 259°
2026-05-07 04:07 19.90125 -98.79117 26362 ft 475 kts 263°
2026-05-07 04:07 19.89816 -98.82580 25829 ft 475 kts 263°
2026-05-07 04:08 19.89480 -98.86091 25291 ft 469 kts 262°
2026-05-07 04:08 19.89120 -98.89481 24769 ft 465 kts 262°
2026-05-07 04:08 19.89014 -98.92916 24241 ft 463 kts 271°
2026-05-07 04:08 19.89241 -98.96320 23677 ft 461 kts 274°
2026-05-07 04:09 19.89540 -98.99703 23082 ft 456 kts 274°
2026-05-07 04:09 19.89835 -99.03031 22520 ft 448 kts 274°
2026-05-07 04:09 19.90101 -99.06310 21983 ft 441 kts 273°
2026-05-07 04:09 19.90261 -99.08446 21632 ft 436 kts 273°
2026-05-07 04:10 19.90445 -99.11635 21167 ft 428 kts 268°
2026-05-07 04:10 19.89902 -99.14677 20598 ft 415 kts 246°
2026-05-07 04:10 19.88409 -99.17252 19884 ft 408 kts 227°
2026-05-07 04:10 19.85598 -99.19850 18833 ft 404 kts 210°
2026-05-07 04:11 19.83915 -99.20754 18391 ft 399 kts 200°
2026-05-07 04:11 19.81340 -99.21699 18145 ft 382 kts 197°
2026-05-07 04:11 19.78871 -99.22526 18010 ft 364 kts 196°
2026-05-07 04:11 19.75705 -99.23577 17363 ft 356 kts 196°
2026-05-07 04:12 19.74119 -99.24113 17032 ft 353 kts 197°
2026-05-07 04:12 19.72183 -99.24778 16617 ft 349 kts 197°
2026-05-07 04:12 19.69918 -99.25564 16126 ft 345 kts 197°
2026-05-07 04:12 19.67626 -99.26366 15631 ft 339 kts 197°
2026-05-07 04:13 19.65434 -99.27133 15157 ft 334 kts 197°
2026-05-07 04:13 19.63239 -99.27901 14679 ft 329 kts 197°
2026-05-07 04:13 19.61027 -99.28404 14212 ft 324 kts 180°
2026-05-07 04:13 19.58828 -99.28014 13768 ft 319 kts 160°
2026-05-07 04:14 19.56917 -99.26888 13378 ft 312 kts 144°
2026-05-07 04:14 19.55179 -99.25530 12969 ft 308 kts 143°
2026-05-07 04:14 19.53414 -99.24297 12625 ft 302 kts 158°
2026-05-07 04:14 19.51399 -99.23869 12344 ft 294 kts 181°
2026-05-07 04:15 19.49398 -99.24183 12078 ft 285 kts 191°
2026-05-07 04:15 19.47525 -99.24592 11993 ft 265 kts 191°
2026-05-07 04:15 19.45771 -99.24973 11864 ft 249 kts 191°
2026-05-07 04:15 19.44125 -99.25326 11712 ft 235 kts 191°
2026-05-07 04:16 19.42520 -99.25306 11372 ft 232 kts 159°
2026-05-07 04:16 19.41145 -99.24517 11283 ft 216 kts 148°
2026-05-07 04:16 19.39908 -99.23719 11120 ft 208 kts 148°
2026-05-07 04:16 19.38672 -99.22927 10798 ft 207 kts 148°
2026-05-07 04:17 19.37519 -99.22021 10439 ft 207 kts 124°
2026-05-07 04:17 19.37134 -99.20616 10083 ft 201 kts 82°
2026-05-07 04:17 19.37404 -99.19176 9757 ft 199 kts 79°
2026-05-07 04:17 19.37766 -99.17772 9447 ft 194 kts 65°
2026-05-07 04:18 19.38309 -99.16533 9309 ft 180 kts 61°
2026-05-07 04:18 19.38909 -99.15394 9153 ft 173 kts 57°
2026-05-07 04:18 19.39518 -99.14301 8977 ft 172 kts 56°
2026-05-07 04:18 19.40133 -99.13201 8747 ft 175 kts 56°
2026-05-07 04:19 19.40748 -99.12096 8450 ft 173 kts 57°
2026-05-07 04:19 19.41363 -99.10994 8161 ft 173 kts 57°
2026-05-07 04:19 19.41965 -99.09905 7925 ft 171 kts 57°
2026-05-07 04:19 19.42573 -99.08811 7645 ft 173 kts 59°
2026-05-07 04:20 19.43183 -99.07723 7481 ft 169 kts 59°
2026-05-07 04:20 19.43728 -99.06758 7469 ft 126 kts 59°
2026-05-07 04:20 19.44062 -99.06165 7470 ft 62 kts 59°
2026-05-07 04:21 19.44189 -99.05830 7471 ft 11 kts 186°
2026-05-07 04:21 19.44112 -99.05837 7480 ft 11 kts 183°
2026-05-07 04:21 19.44043 -99.05867 7486 ft 11 kts 218°
2026-05-07 04:21 19.43996 -99.05932 7489 ft 14 kts 234°
2026-05-07 04:22 19.43941 -99.06031 7489 ft 19 kts 238°
2026-05-07 04:22 19.43859 -99.06175 7490 ft 24 kts 240°
2026-05-07 04:22 19.43776 -99.06324 7491 ft 23 kts 239°
2026-05-07 04:22 19.43696 -99.06467 7489 ft 23 kts 240°
2026-05-07 04:23 19.43615 -99.06612 7489 ft 23 kts 239°
2026-05-07 04:23 19.43508 -99.06727 7490 ft 22 kts 206°
2026-05-07 04:23 19.43409 -99.06840 7493 ft 22 kts 248°
2026-05-07 04:23 19.43333 -99.06983 7492 ft 23 kts 238°
2026-05-07 04:24 19.43264 -99.07132 7492 ft 23 kts 257°
2026-05-07 04:24 19.43226 -99.07297 7489 ft 24 kts 239°
2026-05-07 04:24 19.43143 -99.07442 7490 ft 23 kts 238°
2026-05-07 04:24 19.43060 -99.07581 7489 ft 22 kts 240°
2026-05-07 04:25 19.42981 -99.07722 7490 ft 23 kts 234°
2026-05-07 04:25 19.42900 -99.07810 7490 ft 11 kts 210°
2026-05-07 04:25 19.42851 -99.07843 7495 ft 0 kts 210°
2026-05-07 04:25 19.42845 -99.07846 7493 ft 1 kts 210°
2026-05-07 04:26 19.42825 -99.07848 7493 ft 3 kts 162°
2026-05-07 04:26 19.42816 -99.07825 7494 ft 5 kts 88°
2026-05-07 04:26 19.42831 -99.07785 7493 ft 8 kts 63°
2026-05-07 04:26 19.42869 -99.07715 7496 ft 14 kts 59°
2026-05-07 04:27 19.42927 -99.07600 7495 ft 21 kts 60°
2026-05-07 04:27 19.43010 -99.07451 7496 ft 26 kts 59°
2026-05-07 04:27 19.43099 -99.07291 7495 ft 24 kts 60°
2026-05-07 04:27 19.43182 -99.07142 7494 ft 23 kts 60°
2026-05-07 04:28 19.43234 -99.06989 7495 ft 22 kts 57°
2026-05-07 04:28 19.43316 -99.06855 7496 ft 21 kts 44°
2026-05-07 04:28 19.43337 -99.06761 7497 ft 12 kts 142°
2026-05-07 04:28 19.43274 -99.06703 7500 ft 12 kts 138°
2026-05-07 04:29 19.43216 -99.06722 7499 ft 9 kts 227°
2026-05-07 04:29 19.43197 -99.06744 7499 ft 0 kts 228°